Ainsworth, NE

3:16 AM CDT on June 25, 2017 (GMT -0500)
Ainsworth Municipal

Weather History for KANW - November, 2013

Change the Weather History Date:

Friday, November 1, 2013

  Actual Average Record
Temperature  
Mean Temperature 44 °F -  
Max Temperature 54 °F 50 °F 77 °F (2008)
Min Temperature 33 °F 30 °F 5 °F (2002)
Degree Days  
Heating Degree Days 21    
Moisture  
Dew Point 34 °F    
Average Humidity 66    
Maximum Humidity 86    
Minimum Humidity 42    
Precipitation  
Precipitation 0.00 in - - ()
Sea Level Pressure  
Sea Level Pressure 29.89 in    
Wind  
Wind Speed 15 mph (NW)    
Max Wind Speed 36 mph    
Max Gust Speed 47 mph    
Visibility 10 miles    
Events Rain    
Averages and records for this station are not official NWS values.
T = Trace of Precipitation, MM = Missing Value Source: NWS Daily Summary

Daily Weather History Graph

Daily Weather History Graph

Search for Another Location

Airport or City:

Trip Planner

Search our weather history database for the weather conditions in past years. The results will help you decide how hot, cold, wet, or windy it might be!

Date:

Astronomy

Nov. 01, 2013 Rise Set
Actual Time 8:14 AM CDT 6:32 PM CDT
Civil Twilight 7:44 AM CDT 7:01 PM CDT
Nautical Twilight 7:11 AM CDT 7:35 PM CDT
Astronomical Twilight 6:38 AM CDT 8:07 PM CDT
Moon 6:05 AM CDT (11/1) 5:28 PM CDT (11/1)
Length of Visible Light 11h 17m
Length of Day
10h 18m
Waning Crescent, 4% of the Moon is Illuminated
Nov 1
Waning Crescent
Nov 3
New
Nov 9
First Quarter
Nov 17
Full
Nov 25
Last Quarter

Hourly Weather History & Observations

Time (CDT) Temp. Windchill Dew Point Humidity Pressure Visibility Wind Dir Wind Speed Gust Speed Precip Events Conditions
12:15 AM 46.6 °F - 34.7 °F 63% 29.65 in 10.0 mi NW 9.2 mph - N/A   Overcast
12:35 AM 47.5 °F - 34.7 °F 61% 29.66 in 10.0 mi WNW 10.4 mph - N/A   Overcast
12:55 AM 47.7 °F - 34.9 °F 61% 29.67 in 10.0 mi WNW 9.2 mph - N/A   Overcast
1:15 AM 47.3 °F - 35.6 °F 64% 29.68 in 10.0 mi WNW 10.4 mph - N/A   Overcast
1:35 AM 46.4 °F 41.9 °F 34.7 °F 64% 29.69 in 10.0 mi West 9.2 mph - N/A   Overcast
1:55 AM 45.1 °F 39.9 °F 34.3 °F 66% 29.69 in 10.0 mi West 10.4 mph - N/A   Overcast
2:15 AM 44.2 °F 38.4 °F 34.2 °F 68% 29.69 in 10.0 mi West 11.5 mph - N/A   Mostly Cloudy
2:35 AM 46.0 °F 40.6 °F 34.9 °F 65% 29.70 in 10.0 mi WNW 11.5 mph - N/A   Mostly Cloudy
2:55 AM 46.4 °F 39.5 °F 34.7 °F 64% 29.71 in 10.0 mi NW 17.3 mph 23.0 mph N/A   Overcast
3:15 AM 46.8 °F - 35.1 °F 64% 29.71 in 10.0 mi NW 18.4 mph 27.6 mph N/A   Overcast
3:35 AM 46.4 °F 41.1 °F 35.6 °F 66% 29.72 in 10.0 mi WNW 11.5 mph 16.1 mph N/A   Overcast
3:55 AM 46.6 °F - 35.6 °F 66% 29.72 in 10.0 mi NW 15.0 mph 21.9 mph N/A   Overcast
4:15 AM 46.6 °F - 36.3 °F 67% 29.74 in 10.0 mi NW 17.3 mph 24.2 mph N/A   Overcast
4:35 AM 45.5 °F 37.1 °F 37.2 °F 73% 29.75 in 10.0 mi NW 23.0 mph 35.7 mph N/A   Overcast
4:55 AM 43.9 °F 36.2 °F 38.5 °F 81% 29.76 in 10.0 mi NW 17.3 mph - N/A   Drizzle
5:15 AM 44.2 °F 36.2 °F 38.7 °F 81% 29.77 in 10.0 mi NW 19.6 mph 26.5 mph N/A   Light Drizzle
5:35 AM 43.7 °F 36.6 °F 39.6 °F 85% 29.78 in 10.0 mi WNW 15.0 mph 21.9 mph N/A   Drizzle
5:55 AM 43.2 °F 37.0 °F 39.2 °F 86% 29.78 in 10.0 mi NW 11.5 mph - N/A   Overcast
6:15 AM 42.8 °F 35.4 °F 38.5 °F 85% 29.80 in 10.0 mi NW 15.0 mph 20.7 mph N/A   Scattered Clouds
6:35 AM 43.2 °F 35.6 °F 37.8 °F 81% 29.80 in 10.0 mi NW 16.1 mph 21.9 mph N/A   Scattered Clouds
6:55 AM 43.7 °F 36.3 °F 37.6 °F 79% 29.81 in 10.0 mi NW 16.1 mph - N/A   Clear
7:15 AM 42.8 °F 35.4 °F 37.4 °F 81% 29.82 in 10.0 mi WNW 15.0 mph - N/A   Clear
7:35 AM 42.8 °F 35.8 °F 37.4 °F 81% 29.83 in 10.0 mi WNW 13.8 mph 17.3 mph N/A   Scattered Clouds
7:55 AM 43.3 °F 36.8 °F 38.3 °F 82% 29.83 in 10.0 mi WNW 12.7 mph - N/A   Mostly Cloudy
8:15 AM 42.8 °F 35.4 °F 37.8 °F 82% 29.84 in 10.0 mi WNW 15.0 mph 19.6 mph N/A   Scattered Clouds
8:35 AM 42.4 °F 34.4 °F 37.6 °F 83% 29.85 in 10.0 mi WNW 17.3 mph 21.9 mph N/A   Clear
8:55 AM 42.8 °F 35.4 °F 37.4 °F 81% 29.87 in 10.0 mi WNW 15.0 mph 21.9 mph N/A   Clear
9:15 AM 43.9 °F 37.2 °F 37.4 °F 78% 29.87 in 10.0 mi WNW 13.8 mph 20.7 mph N/A   Scattered Clouds
9:35 AM 44.8 °F 37.7 °F 36.7 °F 73% 29.88 in 10.0 mi WNW 16.1 mph 23.0 mph N/A   Scattered Clouds
9:55 AM 46.0 °F 38.8 °F 36.5 °F 69% 29.88 in 10.0 mi NW 18.4 mph 24.2 mph N/A   Clear
10:15 AM 47.1 °F - 36.5 °F 67% 29.88 in 10.0 mi NW 17.3 mph 25.3 mph N/A   Clear
10:35 AM 47.8 °F - 36.5 °F 65% 29.90 in 10.0 mi WNW 24.2 mph 27.6 mph N/A   Clear
10:55 AM 48.4 °F - 36.7 °F 64% 29.90 in 10.0 mi WNW 19.6 mph 28.8 mph N/A   Clear
11:15 AM 49.3 °F - 36.0 °F 60% 29.90 in 10.0 mi WNW 21.9 mph 28.8 mph N/A   Mostly Cloudy
11:35 AM 50.5 °F - 36.1 °F 58% 29.90 in 10.0 mi WNW 23.0 mph 33.4 mph N/A   Mostly Cloudy
11:55 AM 50.9 °F - 35.2 °F 55% 29.90 in 10.0 mi WNW 19.6 mph 28.8 mph N/A   Mostly Cloudy
12:15 PM 51.6 °F - 34.0 °F 51% 29.90 in 10.0 mi WNW 23.0 mph 35.7 mph N/A   Scattered Clouds
12:35 PM 52.7 °F - 32.2 °F 46% 29.90 in 10.0 mi NW 24.2 mph 39.1 mph N/A   Clear
12:55 PM 53.2 °F - 32.0 °F 44% 29.90 in 10.0 mi WNW 25.3 mph 34.5 mph N/A   Scattered Clouds
1:15 PM 54.0 °F - 31.3 °F 42% 29.89 in 10.0 mi WNW 26.5 mph 41.4 mph N/A   Mostly Cloudy
1:35 PM 49.5 °F - 32.7 °F 53% 29.89 in 10.0 mi WNW 23.0 mph 47.2 mph N/A Rain Light Rain
1:55 PM 50.0 °F - 31.3 °F 49% 29.90 in 10.0 mi NW 35.7 mph 43.7 mph N/A   Overcast
2:15 PM 50.9 °F - 32.0 °F 48% 29.90 in 10.0 mi NW 25.3 mph 43.7 mph N/A   Overcast
2:35 PM 48.7 °F - 29.8 °F 48% 29.91 in 10.0 mi NW 31.1 mph 41.4 mph N/A   Overcast
2:55 PM 48.4 °F - 29.7 °F 48% 29.91 in 10.0 mi NW 26.5 mph 41.4 mph N/A   Overcast
3:15 PM 50.4 °F - 30.0 °F 46% 29.92 in 10.0 mi NW 29.9 mph 40.3 mph N/A   Mostly Cloudy
4:55 PM 45.9 °F 37.4 °F 32.0 °F 58% 29.98 in 10.0 mi NW 24.2 mph 32.2 mph N/A   Overcast
5:15 PM 45.7 °F 37.1 °F 32.0 °F 59% 29.99 in 10.0 mi NW 24.2 mph 32.2 mph N/A   Overcast
5:35 PM 46.2 °F 38.7 °F 32.0 °F 58% 30.00 in 10.0 mi NW 19.6 mph 31.1 mph N/A   Overcast
5:55 PM 46.2 °F 37.5 °F 32.0 °F 58% 30.01 in 10.0 mi NW 26.5 mph 32.2 mph N/A   Overcast
6:15 PM 45.0 °F 37.1 °F 31.8 °F 60% 30.01 in 10.0 mi NW 19.6 mph 31.1 mph N/A   Mostly Cloudy
6:35 PM 44.8 °F 37.7 °F 31.1 °F 59% 30.02 in 10.0 mi NW 16.1 mph 25.3 mph N/A   Scattered Clouds
6:55 PM 43.5 °F 36.4 °F 31.5 °F 63% 30.03 in 10.0 mi NNW 15.0 mph 24.2 mph N/A   Clear
7:15 PM 42.6 °F 36.8 °F 31.1 °F 64% 30.03 in 10.0 mi NW 10.4 mph 18.4 mph N/A   Clear
7:35 PM 42.3 °F 36.8 °F 31.1 °F 65% 30.04 in 10.0 mi NW 9.2 mph - N/A   Clear
7:55 PM 41.0 °F 35.2 °F 30.7 °F 67% 30.05 in 10.0 mi NW 9.2 mph - N/A   Clear
8:15 PM 38.7 °F 34.3 °F 30.2 °F 72% 30.05 in 10.0 mi WNW 5.8 mph - N/A   Clear
8:35 PM 37.9 °F 32.7 °F 30.2 °F 74% 30.06 in 10.0 mi WNW 6.9 mph - N/A   Clear
8:55 PM 38.3 °F 31.9 °F 30.7 °F 74% 30.06 in 10.0 mi WNW 9.2 mph - N/A   Clear
9:15 PM 39.2 °F 33.0 °F 30.4 °F 71% 30.07 in 10.0 mi WNW 9.2 mph - N/A   Clear
9:35 PM 39.7 °F 33.2 °F 30.2 °F 69% 30.07 in 10.0 mi NW 10.4 mph - N/A   Clear
9:55 PM 40.3 °F 33.9 °F 29.7 °F 66% 30.08 in 10.0 mi NW 10.4 mph - N/A   Clear
10:15 PM 39.6 °F 34.0 °F 29.3 °F 67% 30.08 in 10.0 mi WNW 8.1 mph - N/A   Clear
10:35 PM 39.2 °F 33.0 °F 28.9 °F 67% 30.09 in 10.0 mi NW 9.2 mph - N/A   Clear
10:55 PM 37.8 °F 32.5 °F 28.4 °F 69% 30.09 in 10.0 mi WNW 6.9 mph - N/A   Clear
11:15 PM 36.9 °F 32.2 °F 28.2 °F 71% 30.09 in 10.0 mi WNW 5.8 mph - N/A   Clear
11:35 PM 34.7 °F 28.1 °F 27.7 °F 76% 30.09 in 10.0 mi WNW 8.1 mph - N/A   Clear
11:55 PM 33.8 °F 27.0 °F 27.5 °F 78% 30.10 in 10.0 mi West 8.1 mph - N/A   Clear